Tetonia, ID

9:46 PM MST on February 11, 2016 (GMT -0700)
Driggs

Weather History for KDIJ - October, 2012

Change the Weather History Date:

Sunday, October 21, 2012

  Actual Average (KRXE) Record (KRXE)
Temperature  
Mean Temperature 44 °F 43 °F  
Max Temperature 50 °F 56 °F 75 °F (1992)
Min Temperature 36 °F 30 °F 23 °F (1998)
Degree Days  
Heating Degree Days 22 22  
Month to date heating degree days 386  
Since 1 July heating degree days 744  
Cooling Degree Days 0 0  
Month to date cooling degree days 0  
Year to date cooling degree days 208  
Moisture  
Dew Point 28 °F    
Average Humidity 53    
Maximum Humidity 73    
Minimum Humidity 36    
Precipitation  
Precipitation 0.00 in 0.03 in 0.15 in (1979)
Month to date precipitation 0.77  
Year to date precipitation 10.65  
Sea Level Pressure  
Sea Level Pressure 29.72 in    
Wind  
Wind Speed 8 mph (SSE)    
Max Wind Speed 13 mph    
Max Gust Speed -    
Visibility 10 miles    
Events      
T = Trace of Precipitation, MM = Missing Value Source: NWS Daily Summary

Daily Weather History Graph

Daily Weather History Graph

Search for Another Location

Airport or City:

Trip Planner

Search our weather history database for the weather conditions in past years. The results will help you decide how hot, cold, wet, or windy it might be!

Date:

Astronomy

Oct. 21, 2012 Rise Set
Actual Time 7:46 AM MDT 6:30 PM MDT
Civil Twilight 7:17 AM MDT 6:59 PM MDT
Nautical Twilight 6:44 AM MDT 7:32 PM MDT
Astronomical Twilight 6:10 AM MDT 8:06 PM MDT
Moon 2:13 PM MDT (10/21) No Moon Set
Length of Visible Light 11h 41m
Length of Day
10h 43m
Waxing Crescent, 46% of the Moon is Illuminated
Oct 21
Waxing Crescent
Oct 21
First Quarter
Oct 29
Full
Nov 6
Last Quarter
Nov 13
New

Hourly Weather History & Observations

Time (MDT) Temp. Windchill Dew Point Humidity Pressure Visibility Wind Dir Wind Speed Gust Speed Precip Events Conditions
12:56 AM 45.0 °F 40.1 °F 30.0 °F 56% 29.67 in 10.0 mi South 9.2 mph - N/A   Overcast
1:56 AM 43.9 °F 39.9 °F 29.1 °F 56% 29.68 in 10.0 mi South 6.9 mph - N/A   Mostly Cloudy
2:56 AM 43.9 °F 38.3 °F 29.1 °F 56% 29.68 in 10.0 mi SSE 10.4 mph - N/A   Overcast
3:56 AM 43.9 °F 37.5 °F 27.1 °F 52% 29.67 in 10.0 mi South 12.7 mph - N/A   Overcast
4:56 AM 43.0 °F 37.7 °F 27.1 °F 54% 29.68 in 10.0 mi South 9.2 mph - N/A   Overcast
5:56 AM 43.0 °F 38.2 °F 26.1 °F 51% 29.69 in 10.0 mi South 8.1 mph - N/A   Overcast
6:56 AM 41.9 °F 38.2 °F 26.1 °F 53% 29.72 in 10.0 mi South 5.8 mph - N/A   Mostly Cloudy
7:56 AM 41.9 °F 38.2 °F 26.1 °F 53% 29.73 in 10.0 mi SSW 5.8 mph - N/A   Scattered Clouds
8:56 AM 43.0 °F 38.2 °F 26.1 °F 51% 29.74 in 10.0 mi South 8.1 mph - N/A   Scattered Clouds
9:56 AM 43.9 °F 39.3 °F 27.1 °F 52% 29.74 in 10.0 mi SSW 8.1 mph - N/A   Partly Cloudy
11:56 AM 48.9 °F - 27.1 °F 43% 29.72 in 10.0 mi SW 9.2 mph - N/A   Scattered Clouds
12:56 PM 50.0 °F - 24.1 °F 36% 29.71 in 10.0 mi SW 11.5 mph - N/A   Mostly Cloudy
1:56 PM 50.0 °F - 25.2 °F 38% 29.70 in 10.0 mi NNW 12.7 mph - N/A   Overcast
2:56 PM 48.9 °F - 27.1 °F 43% 29.70 in 10.0 mi North 11.5 mph - N/A   Overcast
3:56 PM 47.8 °F - 27.1 °F 45% 29.71 in 10.0 mi NNE 9.2 mph - N/A   Overcast
4:56 PM 46.9 °F - 27.1 °F 46% 29.72 in 10.0 mi NNE 8.1 mph - N/A   Overcast
5:56 PM 45.9 °F 43.6 °F 27.1 °F 48% 29.73 in 10.0 mi NNE 4.6 mph - N/A   Overcast
6:56 PM 43.0 °F 40.3 °F 30.0 °F 60% 29.76 in 10.0 mi NE 4.6 mph - N/A   Mostly Cloudy
7:56 PM 41.9 °F 37.5 °F 30.0 °F 63% 29.76 in 10.0 mi ENE 6.9 mph - N/A   Mostly Cloudy
8:56 PM 41.9 °F 38.2 °F 29.1 °F 61% 29.74 in 10.0 mi South 5.8 mph - N/A   Mostly Cloudy
9:56 PM 39.9 °F - 29.1 °F 65% 29.76 in 10.0 mi Calm Calm - N/A   Overcast
10:56 PM 37.9 °F 34.4 °F 29.1 °F 71% 29.77 in 10.0 mi ESE 4.6 mph - N/A   Overcast
11:56 PM 36.0 °F 32.1 °F 28.0 °F 73% 29.76 in 10.0 mi SE 4.6 mph - N/A   Overcast